Weather in Luganskoye

Russia / Saratov Oblast     51°10′17″N   45°39′51″E
temp.,
°C
wind,
m/s
gust,
m/s
humid.,
%
clouds,
%
prec.,
mm/h
press.,
hPa
HPBL,
m
28 february, sun
sun2801:00−11nw5128567 0.0 1008465
04:00−13nw5118640 0.0 1010346
07:00−15wnw59880 0.0 1012207
10:00−13nw610840 0.0 1014418
13:00−11nw588412 0.0 1014504
16:00−9nw598426 0.0 1015529
19:00−12wnw448923 0.0 101658
22:00−13nw339040 0.0 101844
1 march, mon
mon101:00−14nw338941 0.0 102035
04:00−15nw338763 0.0 102139
07:00−16nw338753 0.0 102326
10:00−14nw238426 0.0 1025119
13:00−11nw23780 0.0 1026312
16:00−9wnw35830 0.0 1026346
19:00−13w34900 0.0 102636
22:00−13w45910 0.0 102678
2 march, tue
tue201:00−12wsw599133 0.0 1025140
04:00−8w7129063 0.0 1022252
07:00−6wsw81489100 0.0 1019427
10:00−3wsw91687100 0.1 1016575
13:00−1wsw111688100 0.1 1013716
16:00+1wsw101692100 0.5 1010718
19:00+1w71296100 0.4 1008443
22:000wnw61090100 0.8 1008346
3 march, wed
wed301:00−2wnw589292 0.0 1007125
04:00−6wnw579279 0.0 100896
07:00−7wnw59910 0.0 1008145
10:00−5wnw610900 0.0 1010278
13:00−2nw7108449 0.0 1011807
16:00−1nw8118172 0.1 1012962
19:00−4nw7128572 0.0 1013251
22:00−6wnw7128236 0.0 1016201
4 march, thu
thu401:00−7wnw610860 0.0 1017137
04:00−9wnw68900 0.0 1018118
07:00−10w58910 0.0 1019119
10:00−7w711866 0.0 1019259
13:00−3wsw914820 0.0 1017544
16:00−1wsw9167933 0.0 1016695
19:00−1wsw91777100 0.0 1014427
22:00−1wsw10197280 0.0 1013440